Content
SEND FEEDBACK

Daily
Averages
Monthly
Summary
United States of America

ROCK HILL, NEW YORK


Home > North America > United States > New York
Elevation: 384 meters     Latitude: 41 35N     Longitude: 074 37W

WEATHER
 
SELECT A DAY
Number of Records: 443,635;   Date Range: 1/1/95 - 8/12/14
 
SHARE

PRINT THIS DATA

[ ← Previous Day ]
WEATHER ALMANAC - 3 JANUARY, 2014
[ Next Day → ]
[ °F ]   °C
Weather ElementAverageHighLow
Temperature-15.6 °C-12 °C (12:35 am)-21 °C (10:35 pm)
Dewpoint-20.4 °C-14 °C (1:35 am)-26 °C (11:35 pm)
Humidity67 %85 % (1:35 am)47 % (3:55 pm)
Barometer1016.9 hPa1027.4 hPa (9:15 pm)1004.7 hPa (1:55 am)
Wind Speed15.4 km/h38.9 km/h (2:35 pm)
Wind Gust55.5 km/h (2:35 pm)
Weather ElementAverage
Visibility11.1 km
Wind DirectionWSW (260.4 °)

Weather ElementTotal
Precipitation---
Heating Degree Days34.8 (Base 18.3)
Averaged from 71 records on 3 January, 2014
WEATHER CONDITIONS BREAKOUT
WIND DIRECTION BREAKOUT
WEATHER BY HOUR - 3 JANUARY, 2014
[ °F ]   °C
Local TimeTemperatureDewpointHumidityBarometerVisibilityWind DirectionWind SpeedGust SpeedPrecipitationEventsConditions
12:35 AM-12 °C-15 °C79 %1005.1 hPa1.3 kmCalmOvercast
12:55 AM-12 °C-15 °C79 %1005.1 hPa1.6 kmCalmOvercast
1:15 AM-12 °C-15 °C79 %1005.4 hPa1.6 kmCalmOvercast
1:35 AM-12 °C-14 °C85 %1005.1 hPa1.9 kmCalmOvercast
1:55 AM-12 °C-15 °C79 %1004.7 hPa2.4 kmCalmOvercast
2:15 AM-12 °C-14 °C85 %1004.7 hPa2.9 kmCalmOvercast
2:35 AM-12 °C-14 °C85 %1005.1 hPa2.4 kmCalmOvercast
2:55 AM-12 °C-15 °C79 %1005.4 hPa3.2 kmNorth (360°)7.4 km/hOvercast
3:15 AM-12 °C-15 °C79 %1005.4 hPa4.8 kmCalmScattered Clouds
3:35 AM-12 °C-16 °C73 %1005.4 hPa4.8 kmNW (310°)13 km/hMostly Cloudy
3:55 AM-13 °C-16 °C79 %1005.8 hPa2.9 kmWNW (300°)16.7 km/hOvercast
4:15 AM-13 °C-17 °C73 %1005.8 hPa2.4 kmNW (320°)11.1 km/hOvercast
4:35 AM-13 °C-17 °C73 %1006.1 hPa3.2 kmNW (320°)14.8 km/hOvercast
4:55 AM-13 °C-17 °C73 %1006.8 hPa4.8 kmNW (320°)16.7 km/h27.8 km/hOvercast
5:15 AM-14 °C-18 °C72 %1007.1 hPa6.4 kmNW (320°)20.4 km/hOvercast
5:35 AM-14 °C-18 °C72 %1007.8 hPa2.9 kmNW (310°)18.5 km/hOvercast
5:55 AM-14 °C-18 °C72 %1008.1 hPa2.9 kmNW (320°)22.2 km/hOvercast
6:15 AM-14 °C-19 °C67 %1008.8 hPa4.8 kmNW (320°)29.6 km/h35.2 km/hOvercast
6:35 AM-14 °C-19 °C67 %1009.5 hPa4 kmNNW (340°)20.4 km/h37 km/hOvercast
6:55 AM-14 °C-18 °C72 %1009.8 hPa9.7 kmNW (320°)20.4 km/h29.6 km/hOvercast
7:15 AM-14 °C-18 °C72 %1010.8 hPa6.4 kmNW (320°)14.8 km/h27.8 km/hMostly Cloudy
7:35 AM-14 °C-19 °C67 %1011.2 hPa14.5 kmNW (310°)14.8 km/hClear
7:55 AM-14 °C-18 °C72 %1011.5 hPa14.5 kmNW (310°)18.5 km/hScattered Clouds
8:15 AM-14 °C-18 °C72 %1012.2 hPa12.9 kmWNW (300°)18.5 km/h31.5 km/hScattered Clouds
8:35 AM-14 °C-20 °C61 %1012.9 hPa11.3 kmNW (310°)27.8 km/h38.9 km/hMostly Cloudy
8:55 AM-15 °C-20 °C66 %1013.5 hPa8 kmNW (310°)25.9 km/h37 km/hPartly Cloudy
9:15 AM-15 °C-21 °C61 %1013.9 hPa14.5 kmNW (320°)22.2 km/h38.9 km/hScattered Clouds
9:35 AM-16 °C-21 °C66 %1014.2 hPa12.9 kmWNW (300°)20.4 km/h35.2 km/hPartly Cloudy
9:55 AM-16 °C-21 °C66 %1014.9 hPa14.5 kmWest (280°)11.1 km/h27.8 km/hClear
10:15 AM-16 °C-19 °C78 %1015.2 hPa16.1 kmNW (320°)25.9 km/h35.2 km/hClear
10:35 AM-16 °C-22 °C61 %1015.9 hPa9.7 kmNW (310°)27.8 km/h44.4 km/hClear
10:55 AM-16 °C-21 °C66 %1016.6 hPa16.1 kmNW (310°)22.2 km/h37 km/hClear
11:15 AM-16 °C-22 °C61 %1016.6 hPa14.5 kmNW (310°)29.6 km/h38.9 km/hClear
11:35 AM-16 °C-22 °C61 %1016.6 hPa12.9 kmNW (310°)29.6 km/h40.7 km/hClear
11:55 AM-15 °C-21 °C61 %1016.6 hPa12.9 kmWNW (300°)27.8 km/h40.7 km/hClear
12:15 PM-15 °C-21 °C61 %1017.3 hPa16.1 kmNW (310°)22.2 km/h38.9 km/hScattered Clouds
12:35 PM-15 °C-22 °C56 %1017.6 hPa9.7 kmNW (320°)24.1 km/h46.3 km/hPartly Cloudy
12:55 PM-15 °C-21 °C61 %1017.9 hPa6.4 kmNW (310°)24.1 km/h50.1 km/hClear
1:15 PM-15 °C-22 °C56 %1018.3 hPa8 kmNNW (330°)33.3 km/h48.1 km/hClear
1:35 PM-15 °C-22 °C56 %1018.6 hPa8 kmNW (310°)25.9 km/h50.1 km/hClear
1:55 PM-14 °C-21 °C56 %1019.3 hPa16.1 kmWNW (300°)25.9 km/h37 km/hClear
2:15 PM-14 °C-22 °C52 %1020 hPa4 kmNW (310°)37 km/h51.8 km/hClear
2:35 PM-15 °C-22 °C56 %1020.3 hPa6.4 kmNW (310°)38.9 km/h55.5 km/hClear
2:55 PM-15 °C-22 °C56 %1020.7 hPa11.3 kmNW (310°)25.9 km/h42.6 km/hClear
3:15 PM-15 °C-22 °C56 %1021 hPa16.1 kmNW (310°)22.2 km/h35.2 km/hClear
3:35 PM-15 °C-23 °C52 %1021.7 hPa16.1 kmNW (320°)27.8 km/h37 km/hClear
3:55 PM-15 °C-24 °C47 %1021.7 hPa16.1 kmNW (320°)22.2 km/h37 km/hClear
4:15 PM-16 °C-23 °C56 %1022.4 hPa16.1 kmNNW (330°)18.5 km/h27.8 km/hClear
4:35 PM-16 °C-24 °C51 %1022.7 hPa16.1 kmNW (320°)14.8 km/h29.6 km/hClear
4:55 PM-16 °C-24 °C51 %1023.4 hPa16.1 kmNNW (330°)14.8 km/hClear
5:15 PM-17 °C-17.8 °C1023.7 hPa16.1 kmNNW (330°)9.3 km/hClear
5:35 PM-17 °C-17.8 °C1024.4 hPa16.1 kmNW (310°)11.1 km/hClear
5:55 PM-17 °C-24 °C56 %1024.7 hPa16.1 kmNW (310°)9.3 km/hClear
6:15 PM-17 °C-24 °C56 %1025.1 hPa16.1 kmNW (320°)11.1 km/hClear
6:35 PM-18 °C-24 °C60 %1025.4 hPa16.1 kmNW (320°)14.8 km/hClear
6:55 PM-18 °C-24 °C60 %1026.1 hPa16.1 kmWNW (300°)11.1 km/hClear
7:15 PM-18 °C-24 °C60 %1026.1 hPa16.1 kmWNW (300°)11.1 km/hClear
7:35 PM-18 °C-24 °C60 %1026.4 hPa16.1 kmWest (280°)14.8 km/hClear
7:55 PM-18 °C-23 °C66 %1026.8 hPa16.1 kmWNW (290°)9.3 km/hClear
8:15 PM-18 °C-24 °C60 %1027.1 hPa16.1 kmCalmClear
8:35 PM-19 °C-24 °C66 %1027.1 hPa16.1 kmCalmClear
8:55 PM-20 °C-24 °C71 %1026.8 hPa16.1 kmWest (270°)7.4 km/hClear
9:15 PM-20 °C-24 °C71 %1027.4 hPa16.1 kmWest (270°)5.6 km/hClear
9:35 PM-20 °C-23 °C78 %1027.1 hPa16.1 kmNW (310°)11.1 km/hClear
9:55 PM-19 °C-23 °C71 %1027.4 hPa16.1 kmNW (310°)7.4 km/hClear
10:15 PM-20 °C-24 °C71 %1027.4 hPa16.1 kmCalmClear
10:35 PM-21 °C-25 °C71 %1027.4 hPa16.1 kmWSW (250°)7.4 km/hClear
10:55 PM-21 °C-24 °C77 %1027.4 hPa16.1 kmWest (270°)7.4 km/hClear
11:15 PM-21 °C-23 °C84 %1027.4 hPa16.1 kmWest (270°)9.3 km/hClear
11:35 PM-21 °C-26 °C65 %1027.1 hPa16.1 kmWest (280°)7.4 km/hClear
11:55 PM-21 °C-23 °C84 %1027.1 hPa16.1 kmWest (280°)5.6 km/hClear
Hourly data recorded from KMSV, located 0 kilometers away from Rock Hill, New York







STORIES FROM OUR PARTNERS